This is the latest recevied weather packets stored in our database for station/object AE6DC-5. If no packets are shown the sender has not sent any weather packets the latest 10 day(s).
| Time | Temp. | Humidity | Pressure | Rain* | Wind** | Luminosity | Snow |
|---|---|---|---|---|---|---|---|
| 1777126698 | 12.78° C | 79% | 1011.4 hPa | 0 mm | - | 35 W/m² | - |
| 1777125638 | 12.78° C | 79% | 1011.4 hPa | 0 mm | - | 18 W/m² | - |
| 1777123819 | 12.78° C | 79% | 1011.3 hPa | 0 mm | - | 4 W/m² | - |
| 1777123099 | 12.78° C | 80% | 1011.3 hPa | 0 mm | - | 1 W/m² | - |
| 1777121300 | 12.78° C | 81% | 1011.4 hPa | 0 mm | - | 0 W/m² | - |
| 1777119860 | 12.78° C | 81% | 1011.5 hPa | 0 mm | - | 0 W/m² | - |
| 1777119497 | 12.78° C | 81% | 1011.4 hPa | 0 mm | - | 0 W/m² | - |
| 1777118777 | 12.78° C | 81% | 1011.4 hPa | 0 mm | - | 0 W/m² | - |
| 1777116978 | 12.78° C | 81% | 1011.5 hPa | 0 mm | - | 0 W/m² | - |
| 1777116621 | 12.78° C | 80% | 1011.6 hPa | 0 mm | - | 0 W/m² | - |
| 1777114102 | 12.78° C | 81% | 1011.7 hPa | 0 mm | - | 0 W/m² | - |
| 1777113382 | 12.78° C | 81% | 1011.8 hPa | 0 mm | - | 0 W/m² | - |
| 1777110137 | 12.78° C | 81% | 1011.9 hPa | 0 mm | - | 0 W/m² | - |
| 1777108341 | 12.78° C | 80% | 1012.2 hPa | 0 mm | - | 0 W/m² | - |
| 1777106538 | 12.78° C | 80% | 1012.3 hPa | 0 mm | - | 0 W/m² | - |
| 1777105462 | 12.78° C | 81% | 1012.5 hPa | 0 mm | - | 0 W/m² | - |
| 1777102939 | 12.78° C | 80% | 1012.8 hPa | 0 mm | - | 0 W/m² | - |
| 1777101137 | 12.78° C | 80% | 1012.8 hPa | 0 mm | - | 0 W/m² | - |
| 1777097898 | 12.78° C | 78% | 1012.8 hPa | 0 mm | - | 0 W/m² | - |
| 1777097558 | 12.78° C | 79% | 1012.9 hPa | 0 mm | - | 0 W/m² | - |
| 1777094299 | 13.33° C | 82% | 1013.3 hPa | 0 mm | - | 0 W/m² | - |
| 1777092856 | 13.33° C | 81% | 1013.3 hPa | 0 mm | - | 0 W/m² | - |
| 1777089263 | 13.33° C | 79% | 1013 hPa | 0 mm | - | 0 W/m² | - |
| 1777088550 | 13.33° C | 79% | 1012.8 hPa | 0 mm | - | 0 W/m² | - |
| 1777086378 | 13.33° C | 80% | 1012.7 hPa | 0 mm | - | 1 W/m² | - |
* Rain latest hour (hover to see other rain measurements)
** Current wind speed in m/s (hover to see current wind gust speed)